Flag for West Bank Weather past 2 weeks in Hebron, West Bank

Now
90 °F

Sunny.


Feels Like: 93 °F
Forecast: 63 / 80 °F
Wind: 13 mph from West

Location: Ben Gurion International Airport

Current Time: Jul 24, 2014 at 4:58:47 PM

Latest Report: Jul 24, 2014 at 4:20 PM


Visibility: 10 mi

Pressure: 29.74 "Hg

Humidity: 49%

Dew point: 68 °F

Location of HebronLocation

Historic Weather in Hebron — Graph

°F

Hebron temperature yesterday

Maximum temperature yesterday: 90 °F (at 12:20 PM)
Minimum temperature yesterday: 75 °F (at 2:50 AM)
Average temperature yesterday: 81 °F

Past Weeks' High & Low Weather Summary

 TemperatureHumidityPressure
High95 °F (Jul 12, 3:20 PM)89% (Jul 24, 3:20 AM)29.89 "Hg (Jul 24, 3:20 AM)
Low72 °F (Jul 10, 5:20 AM)34% (Jul 12, 3:20 PM)29.74 "Hg (Jul 9, 3:50 PM)
Average81 °F65%29.80 "Hg
* Reported Jul 9 3:50 PM — Jul 24 3:50 PM, Hebron, Weather by CustomWeather, © 2014

Note: Actual official high and low records may vary slightly from our data, if they occured in-between our weather recording intervals... More about our weather records

Advertising

Hebron weather history for previous 24 hours

 ConditionsComfort  
Time TempWeatherWind HumidityBarometerVisibility
3:50 PM
Jul 24
88 °FSunny.14 mph52%29.77 "Hg10 mi
3:20 PM88 °FSunny.13 mph52%29.77 "Hg10 mi
2:50 PM88 °FSunny.14 mph49%29.77 "Hg10 mi
2:20 PM88 °FSunny.14 mph55%29.77 "Hg10 mi
1:50 PM90 °FPassing clouds.13 mph52%29.77 "HgN/A
1:20 PM90 °FPassing clouds.12 mph49%29.77 "HgN/A
12:50 PM88 °FPassing clouds.10 mph52%29.77 "HgN/A
12:20 PM88 °FPassing clouds.10 mph55%29.77 "HgN/A
11:50 AM88 °FPassing clouds.9 mph59%29.77 "HgN/A
11:20 AM86 °FPassing clouds.9 mph62%29.77 "HgN/A
10:50 AM88 °FPassing clouds.7 mph59%29.77 "HgN/A
10:20 AM88 °FPassing clouds.3 mph55%29.80 "HgN/A
9:50 AM86 °FScattered clouds.3 mph59%29.80 "HgN/A
9:20 AM84 °FScattered clouds.6 mph66%29.80 "HgN/A
8:50 AM82 °FScattered clouds.6 mph70%29.80 "HgN/A
8:20 AM81 °FPassing clouds.7 mph74%29.80 "HgN/A
7:50 AM79 °FPassing clouds.7 mph79%29.80 "HgN/A
7:20 AM77 °FSunny.7 mph79%29.80 "Hg10 mi
6:50 AM77 °FPassing clouds.6 mph83%29.80 "Hg6 mi
6:20 AM75 °FPassing clouds.7 mphN/A29.80 "Hg6 mi
5:50 AM75 °FPassing clouds.6 mphN/A29.77 "Hg6 mi
5:20 AM75 °FPassing clouds.6 mphN/A29.77 "Hg6 mi
4:50 AM75 °FPassing clouds.7 mphN/A29.77 "HgN/A
4:20 AM75 °FPassing clouds.7 mphN/A29.77 "HgN/A
3:50 AM75 °FPassing clouds.6 mphN/A29.77 "HgN/A
3:20 AM75 °FPassing clouds.3 mph89%29.77 "HgN/A
2:50 AM77 °FPassing clouds.5 mph83%29.80 "HgN/A
2:20 AM77 °FPassing clouds.5 mph83%29.80 "HgN/A
1:50 AM77 °FPassing clouds.6 mph83%29.80 "HgN/A
1:20 AM77 °FPassing clouds.5 mph83%29.80 "HgN/A
12:50 AM77 °FClear.6 mph83%29.80 "Hg10 mi
12:20 AM79 °FClear.3 mph79%29.80 "Hg10 mi
11:50 PM
Jul 23
79 °FClear.3 mph79%29.83 "Hg10 mi
11:20 PM79 °FClear.3 mph79%29.83 "Hg10 mi
10:50 PM79 °FPassing clouds.3 mph79%29.83 "HgN/A
10:20 PM79 °FPassing clouds.3 mph79%29.83 "HgN/A
9:50 PM81 °FClear.5 mph74%29.83 "Hg10 mi
9:20 PM81 °FClear.5 mph74%29.83 "Hg10 mi
8:50 PM81 °FClear.5 mph74%29.80 "Hg10 mi
8:20 PM81 °FSunny.6 mph74%29.80 "Hg10 mi
7:50 PM82 °FPassing clouds.7 mph74%29.80 "HgN/A
7:20 PM82 °FPassing clouds.8 mph74%29.80 "HgN/A
6:50 PM84 °FPassing clouds.9 mph70%29.80 "HgN/A
6:20 PM86 °FPassing clouds.10 mph66%29.77 "HgN/A
5:50 PM86 °FPassing clouds.12 mph66%29.77 "HgN/A
5:20 PM88 °FPassing clouds.13 mph62%29.77 "HgN/A
4:50 PM88 °FPassing clouds.13 mph59%29.77 "HgN/A
4:20 PM88 °FPassing clouds.14 mph62%29.77 "HgN/A
Weather by CustomWeather, © 2014

See weather overviewHow to use our weather pages